EW4363 Weather Reports


time (UTC)temp
C
wind
direction
speed
KPH
gust
KPH
rain 1hr
cm
rain 24hr
cm
rain mn
cm
humidity
%
barometer
mb
20260506180804 18 327 3.2 8.0 0.00 0.03 0.03 53 1010.0
20260506180304 19 315 4.8 9.7 0.00 0.03 0.03 52 1009.9
20260506175804 20 326 3.2 8.0 0.00 0.03 0.03 51 1009.8
20260506175306 20 322 4.8 8.0 0.00 0.03 0.03 50 1009.8
20260506174305 20 323 3.2 8.0 0.00 0.03 0.03 50 1009.7
20260506173804 20 325 3.2 8.0 0.00 0.03 0.03 50 1009.6
20260506173304 21 323 3.2 9.7 0.00 0.03 0.03 49 1009.6
20260506172804 21 326 3.2 4.8 0.00 0.03 0.03 48 1009.5
20260506171805 20 323 3.2 9.7 0.00 0.03 0.03 49 1009.3
20260506170804 21 298 3.2 8.0 0.00 0.03 0.03 49 1009.4
20260506170305 20 286 1.6 4.8 0.00 0.03 0.03 50 1009.4
20260506165305 20 314 1.6 11.3 0.00 0.05 0.03 51 1009.2
20260506164804 20 321 4.8 11.3 0.00 0.05 0.03 52 1009.2
20260506164305 20 319 4.8 11.3 0.00 0.08 0.03 52 1009.2
20260506163305 20 317 4.8 14.5 0.00 0.10 0.03 51 1009.2
20260506162804 21 318 6.4 12.9 0.00 0.13 0.03 49 1009.1
20260506162307 21 324 3.2 11.3 0.00 0.13 0.03 49 1009.1
20260506161804 21 315 4.8 11.3 0.00 0.15 0.03 49 1009.0
20260506161304 21 321 8.0 14.5 0.00 0.15 0.03 48 1009.0
20260506160804 21 318 4.8 9.7 0.00 0.15 0.03 47 1008.9
20260506160305 22 314 3.2 8.0 0.00 0.18 0.03 45 1008.9
20260506155306 22 321 4.8 11.3 0.00 0.23 0.03 44 1008.8
20260506154304 23 319 3.2 8.0 0.00 0.33 0.03 43 1008.8
20260506153804 23 317 3.2 11.3 0.00 0.33 0.03 42 1008.8
20260506153305 24 312 4.8 11.3 0.00 0.33 0.03 41 1008.8
20260506152804 24 338 1.6 8.0 0.00 0.33 0.03 39 1008.8
20260506152306 24 297 1.6 4.8 0.00 0.33 0.03 40 1008.9
20260506151805 24 323 4.8 12.9 0.00 0.33 0.03 39 1008.9
20260506151305 24 292 3.2 9.7 0.00 0.33 0.03 33 1008.9
20260506145805 23 257 1.6 8.0 0.00 0.33 0.03 33 1009.0
20260506145305 23 303 3.2 9.7 0.00 0.33 0.03 33 1009.0
20260506144804 23 266 4.8 16.1 0.00 0.33 0.03 34 1008.9
20260506144305 23 276 0.0 9.7 0.00 0.33 0.03 34 1009.0
20260506143805 23 284 1.6 9.7 0.00 0.33 0.03 33 1009.1
20260506143305 23 300 4.8 11.3 0.00 0.33 0.03 34 1009.2
20260506142804 23 261 4.8 11.3 0.00 0.33 0.03 35 1009.3
20260506142306 23 330 3.2 9.7 0.00 0.33 0.03 34 1009.3
20260506141804 23 309 4.8 12.9 0.00 0.33 0.03 35 1009.3
20260506141305 22 285 1.6 11.3 0.00 0.33 0.03 36 1009.4
20260506140804 22 307 3.2 9.7 0.00 0.33 0.03 37 1009.5
20260506140305 22 254 4.8 12.9 0.00 0.33 0.03 37 1009.5
20260506135805 22 316 4.8 11.3 0.00 0.33 0.03 37 1009.6
20260506135306 22 317 3.2 4.8 0.00 0.33 0.03 36 1009.5
20260506134805 22 289 3.2 16.1 0.00 0.33 0.03 36 1009.6
20260506133805 22 279 0.0 3.2 0.00 0.33 0.03 38 1009.6
20260506132805 22 285 3.2 9.7 0.00 0.33 0.03 37 1009.8
20260506132307 22 280 3.2 9.7 0.00 0.33 0.03 36 1009.8
20260506131304 23 278 1.6 9.7 0.00 0.33 0.03 37 1010.0
20260506130304 23 260 4.8 16.1 0.00 0.33 0.03 34 1010.0
20260506125804 23 302 3.2 11.3 0.00 0.33 0.03 36 1010.0
20260506125305 23 282 1.6 4.8 0.00 0.33 0.03 36 1010.0
20260506124804 23 306 4.8 11.3 0.00 0.33 0.03 36 1010.1
20260506124304 23 325 4.8 11.3 0.00 0.33 0.03 36 1010.0
20260506123304 23 314 4.8 11.3 0.00 0.33 0.03 39 1010.1
20260506122804 23 325 3.2 4.8 0.00 0.33 0.03 38 1010.1
20260506120304 22 261 4.8 8.0 0.00 0.33 0.03 42 1010.3
20260506115804 22 274 1.6 4.8 0.00 0.33 0.03 41 1010.3
20260506115307 22 299 1.6 9.7 0.00 0.33 0.03 39 1010.3
20260506114804 22 318 1.6 4.8 0.00 0.33 0.03 42 1010.3
20260506114304 22 319 3.2 19.3 0.00 0.33 0.03 43 1010.4
20260506113804 21 274 4.8 14.5 0.00 0.33 0.03 40 1010.4
20260506113305 21 270 6.4 12.9 0.00 0.33 0.03 39 1010.4
20260506112804 21 269 6.4 11.3 0.00 0.33 0.03 39 1010.5
20260506112306 21 290 4.8 14.5 0.00 0.33 0.03 39 1010.5
20260506111305 21 259 1.6 12.9 0.00 0.33 0.03 41 1010.6
20260506110804 21 291 1.6 9.7 0.00 0.33 0.03 41 1010.7
20260506110305 21 258 3.2 12.9 0.00 0.33 0.03 41 1010.8
20260506105804 20 310 3.2 12.9 0.00 0.33 0.03 42 1010.7
20260506105305 20 262 4.8 11.3 0.00 0.33 0.03 42 1010.8
20260506104804 20 265 4.8 16.1 0.00 0.33 0.03 43 1010.9
20260506104304 21 306 1.6 9.7 0.00 0.33 0.03 42 1010.9
20260506103304 20 252 1.6 16.1 0.00 0.33 0.03 43 1011.0
20260506102804 20 321 3.2 8.0 0.00 0.33 0.03 43 1011.1
20260506101804 20 316 3.2 4.8 0.00 0.33 0.03 46 1011.2
20260506101305 20 321 3.2 8.0 0.00 0.33 0.03 51 1011.2
20260506100804 20 312 1.6 3.2 0.00 0.33 0.03 50 1011.2
20260506095804 18 267 1.6 4.8 0.00 0.33 0.03 52 1011.4
20260506094804 18 276 3.2 4.8 0.00 0.33 0.03 54 1011.6
20260506092804 17 313 0.0 3.2 0.00 0.33 0.03 59 1011.6
20260506091304 17 294 1.6 4.8 0.00 0.33 0.03 59 1011.8
20260506090804 17 285 3.2 4.8 0.00 0.33 0.03 59 1011.8
20260506090304 17 276 0.0 3.2 0.00 0.33 0.03 61 1011.8
20260506085804 16 271 3.2 4.8 0.00 0.33 0.03 62 1011.8
20260506085306 16 272 6.4 11.3 0.00 0.33 0.03 62 1011.8
20260506084805 16 280 3.2 9.7 0.00 0.33 0.03 62 1011.8
20260506084304 16 273 3.2 4.8 0.00 0.33 0.03 64 1011.8
20260506083804 16 281 3.2 8.0 0.00 0.33 0.03 64 1011.7
20260506083304 15 281 1.6 8.0 0.00 0.33 0.03 65 1011.7
20260506082805 15 283 4.8 9.7 0.00 0.33 0.03 66 1011.7
20260506082305 15 277 3.2 12.9 0.00 0.33 0.03 67 1011.7
20260506081805 15 271 6.4 11.3 0.00 0.33 0.03 67 1011.7
20260506081305 15 277 3.2 12.9 0.00 0.33 0.03 69 1011.6
20260506080805 15 264 3.2 12.9 0.00 0.33 0.03 68 1011.6
20260506080305 14 274 3.2 9.7 0.00 0.33 0.03 70 1011.5
20260506073305 13 267 3.2 9.7 0.00 0.33 0.03 77 1011.4
20260506072804 12 270 4.8 8.0 0.00 0.33 0.03 78 1011.4
20260506072306 12 274 4.8 9.7 0.00 0.33 0.03 78 1011.4
20260506071804 12 278 4.8 12.9 0.00 0.33 0.03 79 1011.4
20260506071305 12 277 4.8 14.5 0.00 0.33 0.03 80 1011.4
20260506070305 11 272 1.6 11.3 0.00 0.33 0.03 83 1011.5
20260506062306 10 274 3.2 12.9 0.00 0.33 0.03 87 1011.5
20260506061805 10 271 3.2 9.7 0.00 0.33 0.03 87 1011.5
20260506061305 10 271 3.2 9.7 0.00 0.33 0.03 87 1011.5
20260506060805 10 268 3.2 9.7 0.00 0.33 0.03 87 1011.4
20260506060305 10 271 3.2 4.8 0.00 0.33 0.03 88 1011.4
20260506050804 9 277 3.2 8.0 0.00 0.33 0.03 91 1010.9
20260506050305 9 270 0.0 4.8 0.00 0.33 0.03 91 1010.9
20260506044805 9 284 0.0 1.6 0.00 0.33 0.03 91 1010.7
20260506043804 9 279 1.6 4.8 0.00 0.33 0.03 92 1010.7
20260506043304 9 265 1.6 4.8 0.00 0.33 0.03 92 1010.7
20260506042305 9 271 1.6 4.8 0.00 0.33 0.03 92 1010.7
20260506041804 9 284 0.0 1.6 0.00 0.33 0.03 92 1010.6
20260506041304 9 284 0.0 1.6 0.00 0.33 0.03 92 1010.6
20260506040804 9 284 0.0 0.0 0.00 0.33 0.03 91 1010.5
20260506040305 9 284 0.0 1.6 0.00 0.33 0.03 90 1010.5
20260506035805 10 284 0.0 1.6 0.00 0.33 0.03 91 1010.5
20260506035306 10 273 1.6 4.8 0.00 0.33 0.03 91 1010.5
20260506034305 10 270 3.2 4.8 0.03 0.33 0.03 92 1010.4
20260506033805 10 276 0.0 1.6 0.03 0.33 0.03 91 1010.4
20260506033305 10 276 0.0 1.6 0.03 0.33 0.03 91 1010.4
20260506032805 10 270 0.0 3.2 0.03 0.33 0.03 91 1010.3
20260506032306 10 279 1.6 4.8 0.03 0.33 0.03 91 1010.2
20260506031805 10 263 3.2 4.8 0.03 0.33 0.03 92 1010.3
20260506031305 10 276 1.6 4.8 0.03 0.33 0.03 92 1010.2
20260506030805 10 270 1.6 8.0 0.03 0.33 0.03 93 1010.3
20260506030305 9 284 0.0 3.2 0.03 0.33 0.03 92 1010.3
20260506025306 10 284 0.0 1.6 0.03 0.33 0.03 93 1010.3
20260506024804 10 284 0.0 1.6 0.03 0.33 0.03 94 1010.2
20260506023805 9 328 0.0 0.0 0.00 0.33 0.00 93 1010.1
20260506023305 9 328 0.0 3.2 0.00 0.33 0.00 93 1010.2
20260506022805 9 252 0.0 1.6 0.00 0.33 0.00 93 1010.2
20260506022306 10 249 0.0 1.6 0.00 0.33 0.00 93 1010.2
20260506021305 10 249 0.0 0.0 0.00 0.33 0.00 94 1010.1
20260506020805 10 249 0.0 3.2 0.00 0.33 0.00 94 1010.1
20260506020304 10 286 0.0 1.6 0.00 0.33 0.00 94 1010.1
20260506015804 10 286 0.0 0.0 0.00 0.33 0.00 94 1010.0
20260506015306 10 286 0.0 1.6 0.00 0.33 0.00 94 1009.9
20260506014805 10 268 0.0 0.0 0.00 0.33 0.00 93 1010.0
20260506014305 10 268 0.0 0.0 0.00 0.33 0.00 92 1010.0
20260506013305 10 268 0.0 1.6 0.00 0.33 0.00 92 1009.9
20260506012805 10 268 0.0 1.6 0.00 0.33 0.00 92 1009.9
20260506012308 10 274 0.0 0.0 0.00 0.33 0.00 93 1009.9
20260506011307 10 0 0.0 0.0 0.00 0.33 0.00 92 1009.9
20260506010805 10 274 0.0 1.6 0.00 0.33 0.00 92 1010.0
20260506010304 10 274 0.0 1.6 0.00 0.33 0.00 92 1010.0
20260506005306 11 274 0.0 0.0 0.00 0.33 0.00 91 1010.1
20260506004805 11 274 0.0 0.0 0.00 0.33 0.00 91 1010.1
20260506004304 11 274 0.0 3.2 0.00 0.33 0.00 91 1010.1
20260506003805 11 274 1.6 4.8 0.00 0.33 0.00 91 1010.2
20260506003305 11 262 1.6 3.2 0.00 0.33 0.00 91 1010.2
20260506002805 11 275 3.2 4.8 0.00 0.33 0.00 91 1010.2
20260506001304 11 338 0.0 8.0 0.00 0.33 0.00 91 1010.2
20260506000804 11 275 3.2 9.7 0.00 0.33 0.00 91 1010.3
20260506000305 11 314 1.6 4.8 0.00 0.33 0.00 92 1010.3
20260505235805 11 289 0.0 4.8 0.00 0.33 0.00 92 1010.3
20260505235305 11 266 0.0 1.6 0.00 0.33 0.00 90 1010.3
20260505234305 11 269 0.0 3.2 0.00 0.33 0.00 91 1010.3
20260505233805 11 275 1.6 4.8 0.00 0.33 0.00 91 1010.3
20260505233304 11 267 0.0 3.2 0.00 0.33 0.00 91 1010.2
20260505232805 11 289 1.6 3.2 0.00 0.33 0.00 92 1010.2
20260505232305 11 270 0.0 3.2 0.00 0.33 0.00 92 1010.3
20260505231805 11 270 0.0 3.2 0.00 0.33 0.00 92 1010.2
20260505231304 11 273 0.0 3.2 0.00 0.33 0.00 93 1010.2
20260505230804 11 274 1.6 4.8 0.00 0.33 0.00 93 1010.1
20260505230305 11 273 0.0 1.6 0.00 0.33 0.00 93 1010.2
20260505225306 11 283 0.0 1.6 0.00 0.33 0.00 92 1010.1
20260505224805 11 283 0.0 1.6 0.00 0.33 0.00 92 1010.1
20260505224304 11 283 0.0 1.6 0.00 0.33 0.00 92 1010.0
20260505223804 11 283 0.0 1.6 0.00 0.33 0.00 93 1010.2
20260505223304 11 283 0.0 1.6 0.00 0.33 0.00 93 1010.4
20260505222805 12 324 0.0 1.6 0.00 0.33 0.00 93 1010.4
20260505222306 12 324 0.0 1.6 0.00 0.33 0.00 93 1010.5
20260505221805 12 324 0.0 0.0 0.00 0.33 0.00 93 1010.7
20260505221304 12 324 0.0 0.0 0.00 0.33 0.00 92 1010.6
20260505215805 12 324 0.0 3.2 0.00 0.33 0.33 91 1010.8
20260505215305 12 322 0.0 0.0 0.00 0.33 0.33 91 1010.8
20260505214305 12 322 0.0 0.0 0.00 0.33 0.33 92 1010.9
20260505213805 12 322 0.0 0.0 0.00 0.33 0.33 92 1010.8
20260505213305 12 322 0.0 0.0 0.00 0.33 0.33 92 1010.7
20260505212805 12 322 0.0 0.0 0.00 0.33 0.33 91 1010.8
20260505212306 12 322 0.0 0.0 0.00 0.33 0.33 91 1010.7
20260505211805 12 322 0.0 0.0 0.00 0.33 0.33 91 1010.6
20260505210805 12 324 0.0 1.6 0.00 0.33 0.33 91 1010.6
20260505210305 12 324 0.0 0.0 0.00 0.33 0.33 90 1010.7
20260505205805 12 324 0.0 0.0 0.00 0.33 0.33 90 1010.6
20260505205306 12 324 0.0 0.0 0.00 0.33 0.33 91 1010.7
20260505204805 12 324 0.0 0.0 0.00 0.33 0.33 90 1010.7
20260505203805 12 324 0.0 1.6 0.00 0.33 0.33 90 1010.4
20260505203305 12 324 0.0 0.0 0.00 0.38 0.33 91 1010.3
20260505202805 12 324 0.0 0.0 0.00 0.43 0.33 91 1010.2
20260505202306 12 324 0.0 1.6 0.00 0.46 0.33 91 1010.2
20260505201805 12 324 0.0 1.6 0.00 0.51 0.33 91 1010.2
20260505201305 12 326 0.0 1.6 0.00 0.51 0.33 91 1010.2
20260505200805 12 326 0.0 0.0 0.00 0.51 0.33 91 1010.1
20260505200305 12 326 0.0 0.0 0.00 0.51 0.33 90 1010.0
20260505195805 12 326 0.0 1.6 0.00 0.51 0.33 90 1010.0
20260505195305 13 326 0.0 1.6 0.00 0.51 0.33 90 1009.8
20260505194804 13 326 0.0 1.6 0.00 0.51 0.33 89 1009.7
20260505193805 13 336 0.0 1.6 0.00 0.51 0.33 88 1009.6
20260505193305 13 281 0.0 0.0 0.00 0.51 0.33 88 1009.5
20260505192804 13 281 0.0 1.6 0.00 0.51 0.33 87 1009.4
20260505192306 13 281 0.0 3.2 0.00 0.51 0.33 87 1009.2
20260505191804 13 267 0.0 1.6 0.00 0.51 0.33 88 1009.2
20260505190805 13 265 0.0 1.6 0.00 0.51 0.33 87 1009.2
20260505190305 13 264 1.6 3.2 0.00 0.51 0.33 87 1009.1
20260505185805 13 273 1.6 4.8 0.00 0.51 0.33 88 1009.1
20260505185305 13 267 1.6 4.8 0.00 0.51 0.33 90 1009.2
20260505184805 13 262 1.6 4.8 0.00 0.51 0.33 90 1009.2
20260505184304 13 275 1.6 3.2 0.00 0.51 0.33 89 1009.3
20260505183806 13 280 0.0 3.2 0.00 0.51 0.33 89 1009.2
20260505183305 13 285 0.0 1.6 0.00 0.51 0.33 90 1009.2
20260505182804 13 285 0.0 3.2 0.00 0.51 0.33 90 1009.3
20260505182306 13 327 0.0 1.6 0.00 0.51 0.33 90 1009.2
20260505181805 13 327 0.0 0.0 0.00 0.51 0.33 89 1009.2